[ hide orbit diagram ]
For accurate long-term ephemerides, please instead use our Horizons system.This orbit viewer was implemented using two-body methods, and hence should not be used for determining accurate long-term trajectories (over several years or decades) or planetary encounter circumstances.
Orbital Elements at Epoch 2459000.5 (2020-May-31.0) TDB
Reference: JPL 32 (heliocentric ecliptic J2000)
Element | Value | Uncertainty (1-sigma) | Units |
e | .009939880489412788 | 3.7795e-08 | |
a | 2.641346325681859 | 9.095e-09 | au |
q | 2.615091658873431 | 1.0202e-07 | au |
i | 3.587276699402606 | 3.9497e-06 | deg |
node | 332.224186711766 | 5.354e-05 | deg |
peri | 6.680823579437163 | 0.00018553 | deg |
M | 347.4312689920289 | 0.00017656 | deg |
tp | 2459055.242594955810 (2020-Jul-24.74259496) | 0.00076895 | TDB |
period | 1567.965307841604 4.29 | 8.0985e-06 2.217e-08 | d yr |
n | .2295969165896669 | 1.1859e-09 | deg/d |
Q | 2.667600992490286 | 9.1854e-09 | au |
|
| | Orbit Determination Parameters
Additional Information
|
[ show covariance matrix ]
Physical Parameter Table
Parameter |
Symbol |
Value |
Units |
Sigma |
Reference |
Notes |
absolute magnitude |
H |
12.8 |
|
n/a |
MPO395012 |
|
diameter |
diameter |
9.212 |
km |
0.053 |
urn:nasa:pds:neowise_diameters_albedos::2.0[mainbelt] (http://adsabs.harvard.edu/abs/2011ApJ...741...68M) |
|
geometric albedo |
albedo |
0.173 |
|
0.028 |
urn:nasa:pds:neowise_diameters_albedos::2.0[mainbelt] (http://adsabs.harvard.edu/abs/2011ApJ...741...68M) |
|
|
2095 Parsifal (6036 P-L) Discovered 1960-Sep-24 by PLS at Palomar |
These planets have all been discovered as a result of the Palomar survey of faint minor planets and subsequently identified with planets observed at other oppositions. In Sept. and Oct. 1960, T. Gehrels exposed 130 plates with the 122 cm Schmidt camera at Palomar. In the following years C. J. van Houten and I. van Houten-Groeneveld measured these plates astrometrically and photometrically at Leiden. P. Herget, Cincinnati, computed the orbits of the planets found on the NORC computer, Dahlgren, Virginia, USA. |
Note: "planet" implies "minor planet" |
Reference: DISCOVERY.DB | Last Updated: 2003-08-29 |
|
Alternate Designations
6036 P-L = 1973 SF4 = 1973 SS2 = 1980 FD12 = 1984 FD2 = 1984 FK1 = 1984 GV |
|
|